This demonstration page uses our WeatherBlox Daily Observations layout. Learn more.

Left ArrowRight Arrow

38.83388, -104.82136

Hourly Observations for January 25, 2015

Temp ( °F °C ) Dew Point ( °F °C ) Humidity (%) Winds ( mph kmh ) Pressure ( in mb ) Visibility ( mi km ) Precip ( " mm )
12:56 am 00:56 Clear 37 2.8 22 -5.6 54 54 NNW 12 19 29.75 1007 10 16 N/A
1:56 am 01:56 Clear 37 2.5 19 -7.2 49 49 S 3 6 29.77 1008 10 16 N/A
2:56 am 02:56 Clear 35 1.8 21 -6 57 57 S 13 20 29.78 1008 10 16 N/A
3:56 am 03:56 Clear 33 0.4 20 -6.6 60 60 NW 3 6 29.80 1009 10 16 N/A
4:56 am 04:56 Clear 32 0.1 22 -5.7 65 65 S 6 9 29.81 1010 10 16 N/A
5:56 am 05:56 Clear 32 0.2 21 -6.3 62 62 WNW 3 6 29.84 1011 10 16 N/A
6:56 am 06:56 Clear 31 -0.4 20 -6.5 64 64 SW 2 4 29.87 1012 10 16 N/A
7:56 am 07:56 Sunny 37 2.8 21 -6.3 52 52 SSE 8 13 29.83 1010 10 16 N/A
8:56 am 08:56 Sunny 39 3.9 21 -6.2 48 48 SE 7 11 29.84 1010 10 16 N/A
9:56 am 09:56 Sunny 40 4.4 26 -3.2 58 58 SE 2 4 29.87 1011 10 16 N/A
10:56 am 10:56 Sunny 43 6 27 -3 53 53 SSE 7 11 29.88 1012 10 16 N/A
11:56 am 11:56 Sunny 46 7.9 26 -3.3 45 45 SE 12 19 29.83 1010 10 16 N/A
12:56 pm 12:56 Sunny 47 8.1 23 -5 39 39 SE 8 13 29.84 1010 10 16 N/A
1:56 pm 13:56 Sunny 48 8.7 20 -6.7 33 33 SSE 8 13 29.81 1009 10 16 N/A
2:56 pm 14:56 Sunny 48 8.7 20 -6.4 34 34 SSE 10 17 29.83 1010 10 16 N/A
3:56 pm 15:56 Sunny 46 7.5 20 -6.4 37 37 SSW 8 13 29.85 1011 10 16 N/A
4:56 pm 16:56 Sunny 44 6.7 22 -5.4 42 42 SSW 3 6 29.88 1012 10 16 N/A
5:56 pm 17:56 Clear 41 5.1 25 -3.9 53 53 WNW 8 13 29.91 1013 10 16 N/A
6:56 pm 18:56 Clear 43 6.3 24 -4.7 46 46 SW 2 4 29.93 1013 10 16 N/A
7:56 pm 19:56 Clear 42 5.8 23 -4.9 46 46 NW 5 7 29.91 1013 10 16 N/A
8:56 pm 20:56 Clear 40 4.5 23 -5.1 50 50 NW 6 9 29.89 1012 10 16 N/A
9:56 pm 21:56 Clear 44 6.7 20 -6.5 39 39 N 9 15 29.88 1012 10 16 N/A
10:56 pm 22:56 Clear 45 7.4 20 -6.7 36 36 N 10 17 29.88 1012 10 16 N/A
11:56 pm 23:56 Clear 48 9 19 -7.2 31 31 N 7 11 29.86 1011 10 16 N/A

Powered by AerisWeather